����������;��������(kWh)
2018-07-30 00:00;86
2018-07-30 00:15;83
2018-07-30 00:30;85,8
2018-07-30 00:45;84,6
2018-07-30 01:00;83,65
2018-07-30 01:15;85
2018-07-30 01:30;84,85
2018-07-30 01:45;85,6
2018-07-30 02:00;81,8
2018-07-30 02:15;81,5
2018-07-30 02:30;82,8
2018-07-30 02:45;81,45
2018-07-30 03:00;81,6
2018-07-30 03:15;82,1
2018-07-30 03:30;81,3
2018-07-30 03:45;82,65
2018-07-30 04:00;79,9
2018-07-30 04:15;82,1
2018-07-30 04:30;82,2
2018-07-30 04:45;81,6
2018-07-30 05:00;82,6
2018-07-30 05:15;82,1
2018-07-30 05:30;80,65
2018-07-30 05:45;83,45
2018-07-30 06:00;81,95
2018-07-30 06:15;80,05
2018-07-30 06:30;96,95
2018-07-30 06:45;106,2
2018-07-30 07:00;104,35
2018-07-30 07:15;95,5
2018-07-30 07:30;95,8
2018-07-30 07:45;159,55
2018-07-30 08:00;128,7
2018-07-30 08:15;129,1
2018-07-30 08:30;125,65
2018-07-30 08:45;142,75
2018-07-30 09:00;155,65
2018-07-30 09:15;168,6
2018-07-30 09:30;173,65
2018-07-30 09:45;179,25
2018-07-30 10:00;186
2018-07-30 10:15;199,1
2018-07-30 10:30;206,95
2018-07-30 10:45;212,5
2018-07-30 11:00;229,8
2018-07-30 11:15;225,4
2018-07-30 11:30;225,45
2018-07-30 11:45;233,1
2018-07-30 12:00;235,9
2018-07-30 12:15;248,15
2018-07-30 12:30;246,05
2018-07-30 12:45;239,7
2018-07-30 13:00;247,55
2018-07-30 13:15;242,15
2018-07-30 13:30;237,7
2018-07-30 13:45;243,35
2018-07-30 14:00;233,9
2018-07-30 14:15;233,35
2018-07-30 14:30;236,55
2018-07-30 14:45;217,95
2018-07-30 15:00;208,75
2018-07-30 15:15;214,8
2018-07-30 15:30;207,5
2018-07-30 15:45;201,6
2018-07-30 16:00;192,45
2018-07-30 16:15;178,05
2018-07-30 16:30;180,95
2018-07-30 16:45;167,85
2018-07-30 17:00;156,45
2018-07-30 17:15;161,3
2018-07-30 17:30;154,8
2018-07-30 17:45;152
2018-07-30 18:00;145,85
2018-07-30 18:15;148,5
2018-07-30 18:30;142,5
2018-07-30 18:45;135
2018-07-30 19:00;131,85
2018-07-30 19:15;127,1
2018-07-30 19:30;125,6
2018-07-30 19:45;127,2
2018-07-30 20:00;119,25
2018-07-30 20:15;108,55
2018-07-30 20:30;106,85
2018-07-30 20:45;113,15
2018-07-30 21:00;111,95
2018-07-30 21:15;110,55
2018-07-30 21:30;110,15
2018-07-30 21:45;109,05
2018-07-30 22:00;106,9
2018-07-30 22:15;104,7
2018-07-30 22:30;106
2018-07-30 22:45;102,9
2018-07-30 23:00;107,6
2018-07-30 23:15;101,5
2018-07-30 23:30;103,6
2018-07-30 23:45;103,05
2018-07-31 00:00;96,15
2018-07-31 00:15;95,75
2018-07-31 00:30;94,05
2018-07-31 00:45;93,7
2018-07-31 01:00;88,4
2018-07-31 01:15;93
2018-07-31 01:30;90,4
2018-07-31 01:45;91,1
2018-07-31 02:00;89,55
2018-07-31 02:15;82,75
2018-07-31 02:30;83,25
2018-07-31 02:45;84,55
2018-07-31 03:00;83,5
2018-07-31 03:15;83,7
2018-07-31 03:30;83,4
2018-07-31 03:45;83,2
2018-07-31 04:00;83,75
2018-07-31 04:15;83,65
2018-07-31 04:30;82,35
2018-07-31 04:45;85,9
2018-07-31 05:00;82,5
2018-07-31 05:15;84,15
2018-07-31 05:30;84,65
2018-07-31 05:45;84,2
2018-07-31 06:00;84,35
2018-07-31 06:15;85,25
2018-07-31 06:30;84,15
2018-07-31 06:45;108,7
2018-07-31 07:00;111,95
2018-07-31 07:15;105,95
2018-07-31 07:30;104,5
2018-07-31 07:45;160,5
2018-07-31 08:00;117,2
2018-07-31 08:15;119,8
2018-07-31 08:30;135
2018-07-31 08:45;150,7
2018-07-31 09:00;154,8
2018-07-31 09:15;171,3
2018-07-31 09:30;178,05
2018-07-31 09:45;185,45
2018-07-31 10:00;191,35
2018-07-31 10:15;191
2018-07-31 10:30;210,5
2018-07-31 10:45;243,05
2018-07-31 11:00;257,2
2018-07-31 11:15;218
2018-07-31 11:30;237,6
2018-07-31 11:45;225,8
2018-07-31 12:00;230,85
2018-07-31 12:15;234,2
2018-07-31 12:30;234,65
2018-07-31 12:45;238,1
2018-07-31 13:00;234,9
2018-07-31 13:15;235,15
2018-07-31 13:30;251,95
2018-07-31 13:45;233,5
2018-07-31 14:00;238,55
2018-07-31 14:15;230,15
2018-07-31 14:30;222,8
2018-07-31 14:45;224,45
2018-07-31 15:00;203,6
2018-07-31 15:15;190,1
2018-07-31 15:30;140,85
2018-07-31 15:45;153,95
2018-07-31 16:00;146,5
2018-07-31 16:15;138,05
2018-07-31 16:30;123,6
2018-07-31 16:45;116,45
2018-07-31 17:00;122,15
2018-07-31 17:15;122,25
2018-07-31 17:30;114,2
2018-07-31 17:45;122,7
2018-07-31 18:00;122,05
2018-07-31 18:15;119,65
2018-07-31 18:30;116,5
2018-07-31 18:45;113,45
2018-07-31 19:00;109,85
2018-07-31 19:15;112,9
2018-07-31 19:30;111,9
2018-07-31 19:45;114,25
2018-07-31 20:00;110,6
2018-07-31 20:15;110,45
2018-07-31 20:30;111,05
2018-07-31 20:45;115,65
2018-07-31 21:00;114,8
2018-07-31 21:15;106,95
2018-07-31 21:30;111,9
2018-07-31 21:45;110,9
2018-07-31 22:00;109,9
2018-07-31 22:15;99,45
2018-07-31 22:30;99,2
2018-07-31 22:45;95,65
2018-07-31 23:00;100,35
2018-07-31 23:15;95,55
2018-07-31 23:30;95,4
2018-07-31 23:45;90,2
2018-08-01 00:00;87
2018-08-01 00:15;86,2
2018-08-01 00:30;83,5
2018-08-01 00:45;85,55
2018-08-01 01:00;83,35
2018-08-01 01:15;84,85
2018-08-01 01:30;83,1
2018-08-01 01:45;82,35
2018-08-01 02:00;84,35
2018-08-01 02:15;81,15
2018-08-01 02:30;81,45
2018-08-01 02:45;80,8
2018-08-01 03:00;81,55
2018-08-01 03:15;81,8
2018-08-01 03:30;80,8
2018-08-01 03:45;82
2018-08-01 04:00;80,75
2018-08-01 04:15;78,8
2018-08-01 04:30;81,15
2018-08-01 04:45;79,25
2018-08-01 05:00;80,7
2018-08-01 05:15;79,5
2018-08-01 05:30;80,75
2018-08-01 05:45;90,35
2018-08-01 06:00;88,85
2018-08-01 06:15;90,1
2018-08-01 06:30;88,05
2018-08-01 06:45;85,85
2018-08-01 07:00;89,15
2018-08-01 07:15;88,85
2018-08-01 07:30;92,65
2018-08-01 07:45;94,55
2018-08-01 08:00;97,6
2018-08-01 08:15;103,6
2018-08-01 08:30;114,35
2018-08-01 08:45;127,7
2018-08-01 09:00;132,25
2018-08-01 09:15;142
2018-08-01 09:30;153,3
2018-08-01 09:45;190,8
2018-08-01 10:00;194,3
2018-08-01 10:15;193,9
2018-08-01 10:30;219,75
2018-08-01 10:45;252,75
2018-08-01 11:00;248,9
2018-08-01 11:15;233,45
2018-08-01 11:30;230,15
2018-08-01 11:45;227,85
2018-08-01 12:00;223,55
2018-08-01 12:15;218,2
2018-08-01 12:30;217,4
2018-08-01 12:45;226,65
2018-08-01 13:00;222,55
2018-08-01 13:15;224,6
2018-08-01 13:30;217,45
2018-08-01 13:45;213,7
2018-08-01 14:00;225,7
2018-08-01 14:15;217,35
2018-08-01 14:30;216,95
2018-08-01 14:45;212,5
2018-08-01 15:00;206,75
2018-08-01 15:15;194,9
2018-08-01 15:30;189,6
2018-08-01 15:45;183,4
2018-08-01 16:00;179,05
2018-08-01 16:15;175,9
2018-08-01 16:30;175,75
2018-08-01 16:45;163,2
2018-08-01 17:00;148,15
2018-08-01 17:15;148,85
2018-08-01 17:30;146,25
2018-08-01 17:45;144,75
2018-08-01 18:00;146,75
2018-08-01 18:15;146,7
2018-08-01 18:30;135,85
2018-08-01 18:45;136,05
2018-08-01 19:00;140,45
2018-08-01 19:15;119,95
2018-08-01 19:30;118,55
2018-08-01 19:45;119,95
2018-08-01 20:00;119,05
2018-08-01 20:15;116
2018-08-01 20:30;115,25
2018-08-01 20:45;119,2
2018-08-01 21:00;108
2018-08-01 21:15;102,6
2018-08-01 21:30;99,8
2018-08-01 21:45;100,7
2018-08-01 22:00;97,5
2018-08-01 22:15;96,65
2018-08-01 22:30;96,8
2018-08-01 22:45;94,25
2018-08-01 23:00;101,4
2018-08-01 23:15;94,65
2018-08-01 23:30;95,1
2018-08-01 23:45;92,95
2018-08-02 00:00;84,15
2018-08-02 00:15;85,1
2018-08-02 00:30;82,6
2018-08-02 00:45;83,65
2018-08-02 01:00;82,85
2018-08-02 01:15;84,85
2018-08-02 01:30;83,3
2018-08-02 01:45;82,6
2018-08-02 02:00;83,55
2018-08-02 02:15;83,45
2018-08-02 02:30;82,65
2018-08-02 02:45;81,65
2018-08-02 03:00;82,3
2018-08-02 03:15;83,65
2018-08-02 03:30;81
2018-08-02 03:45;83,3
2018-08-02 04:00;81,2
2018-08-02 04:15;80,7
2018-08-02 04:30;83,2
2018-08-02 04:45;81,45
2018-08-02 05:00;82,85
2018-08-02 05:15;80,95
2018-08-02 05:30;82,2
2018-08-02 05:45;85,1
2018-08-02 06:00;91,2
2018-08-02 06:15;91,3
2018-08-02 06:30;88,8
2018-08-02 06:45;88,95
2018-08-02 07:00;90,9
2018-08-02 07:15;89,25
2018-08-02 07:30;90,55
2018-08-02 07:45;167,95
2018-08-02 08:00;140,05
2018-08-02 08:15;139
2018-08-02 08:30;156,9
2018-08-02 08:45;157,7
2018-08-02 09:00;161,15
2018-08-02 09:15;172,75
2018-08-02 09:30;172,5
2018-08-02 09:45;195,6
2018-08-02 10:00;226,25
2018-08-02 10:15;202,85
2018-08-02 10:30;202,2
2018-08-02 10:45;214,95
2018-08-02 11:00;225,95
2018-08-02 11:15;222,1
2018-08-02 11:30;233,05
2018-08-02 11:45;212,5
2018-08-02 12:00;229,65
2018-08-02 12:15;216,2
2018-08-02 12:30;223,35
2018-08-02 12:45;215,3
2018-08-02 13:00;225,45
2018-08-02 13:15;225
2018-08-02 13:30;221,9
2018-08-02 13:45;221,8
2018-08-02 14:00;240,8
2018-08-02 14:15;213,55
2018-08-02 14:30;223,25
2018-08-02 14:45;214,9
2018-08-02 15:00;210,8
2018-08-02 15:15;198,8
2018-08-02 15:30;185,2
2018-08-02 15:45;172,3
2018-08-02 16:00;173,2
2018-08-02 16:15;168,4
2018-08-02 16:30;157,1
2018-08-02 16:45;150,8
2018-08-02 17:00;147,1
2018-08-02 17:15;137,35
2018-08-02 17:30;140,1
2018-08-02 17:45;142,35
2018-08-02 18:00;135,85
2018-08-02 18:15;136,75
2018-08-02 18:30;134,2
2018-08-02 18:45;128,35
2018-08-02 19:00;127,3
2018-08-02 19:15;124,3
2018-08-02 19:30;124,1
2018-08-02 19:45;123,95
2018-08-02 20:00;123
2018-08-02 20:15;119,3
2018-08-02 20:30;118,55
2018-08-02 20:45;117,45
2018-08-02 21:00;121,4
2018-08-02 21:15;113,5
2018-08-02 21:30;112,05
2018-08-02 21:45;107,65
2018-08-02 22:00;105,7
2018-08-02 22:15;100,4
2018-08-02 22:30;103,95
2018-08-02 22:45;100
2018-08-02 23:00;97,15
2018-08-02 23:15;92,2
2018-08-02 23:30;91,9
2018-08-02 23:45;93,3
2018-08-03 00:00;84,4
2018-08-03 00:15;84,6
2018-08-03 00:30;84,4
2018-08-03 00:45;81,2
2018-08-03 01:00;83,65
2018-08-03 01:15;81,25
2018-08-03 01:30;81,65
2018-08-03 01:45;81,05
2018-08-03 02:00;82,95
2018-08-03 02:15;81,05
2018-08-03 02:30;81,85
2018-08-03 02:45;82,6
2018-08-03 03:00;79,55
2018-08-03 03:15;81,7
2018-08-03 03:30;81,8
2018-08-03 03:45;83,55
2018-08-03 04:00;84,05
2018-08-03 04:15;82,05
2018-08-03 04:30;85,75
2018-08-03 04:45;111,2
2018-08-03 05:00;113,5
2018-08-03 05:15;108,05
2018-08-03 05:30;102,15
2018-08-03 05:45;98,4
2018-08-03 06:00;97
2018-08-03 06:15;95,75
2018-08-03 06:30;100,6
2018-08-03 06:45;103,95
2018-08-03 07:00;102,8
2018-08-03 07:15;102,85
2018-08-03 07:30;107,3
2018-08-03 07:45;161,35
2018-08-03 08:00;117,55
2018-08-03 08:15;121,45
2018-08-03 08:30;141,9
2018-08-03 08:45;142,85
2018-08-03 09:00;148,05
2018-08-03 09:15;152,7
2018-08-03 09:30;148,3
2018-08-03 09:45;152,95
2018-08-03 10:00;200,85
2018-08-03 10:15;205,05
2018-08-03 10:30;172,5
2018-08-03 10:45;217,1
2018-08-03 11:00;206,7
2018-08-03 11:15;217,45
2018-08-03 11:30;245,5
2018-08-03 11:45;209,9
2018-08-03 12:00;225,65
2018-08-03 12:15;239,4
2018-08-03 12:30;218,4
2018-08-03 12:45;236,55
2018-08-03 13:00;222,25
2018-08-03 13:15;229,1
2018-08-03 13:30;208,45
2018-08-03 13:45;201,05
2018-08-03 14:00;202,3
2018-08-03 14:15;202,15
2018-08-03 14:30;188,6
2018-08-03 14:45;168,4
2018-08-03 15:00;164,1
2018-08-03 15:15;151,85
2018-08-03 15:30;141,25
2018-08-03 15:45;144,45
2018-08-03 16:00;142,05
2018-08-03 16:15;124,25
2018-08-03 16:30;133,55
2018-08-03 16:45;121,55
2018-08-03 17:00;109,45
2018-08-03 17:15;115,6
2018-08-03 17:30;110,85
2018-08-03 17:45;104,1
2018-08-03 18:00;111,35
2018-08-03 18:15;105,2
2018-08-03 18:30;96,15
2018-08-03 18:45;100,15
2018-08-03 19:00;97,85
2018-08-03 19:15;92,65
2018-08-03 19:30;90,95
2018-08-03 19:45;94,05
2018-08-03 20:00;90,2
2018-08-03 20:15;89,55
2018-08-03 20:30;91
2018-08-03 20:45;92,1
2018-08-03 21:00;92,95
2018-08-03 21:15;87,6
2018-08-03 21:30;88,75
2018-08-03 21:45;87,35
2018-08-03 22:00;87,1
2018-08-03 22:15;84,15
2018-08-03 22:30;84,4
2018-08-03 22:45;81,7
2018-08-03 23:00;88,6
2018-08-03 23:15;83,7
2018-08-03 23:30;85,85
2018-08-03 23:45;87,1
2018-08-04 00:00;80,85
2018-08-04 00:15;81,15
2018-08-04 00:30;79,65
2018-08-04 00:45;81,15
2018-08-04 01:00;79,55
2018-08-04 01:15;79,6
2018-08-04 01:30;79,85
2018-08-04 01:45;80,1
2018-08-04 02:00;78,45
2018-08-04 02:15;79,35
2018-08-04 02:30;79,8
2018-08-04 02:45;79,45
2018-08-04 03:00;79,35
2018-08-04 03:15;78,85
2018-08-04 03:30;80,85
2018-08-04 03:45;79,6
2018-08-04 04:00;81,05
2018-08-04 04:15;79,55
2018-08-04 04:30;81,45
2018-08-04 04:45;81,5
2018-08-04 05:00;80,95
2018-08-04 05:15;82,2
2018-08-04 05:30;80,75
2018-08-04 05:45;80,35
2018-08-04 06:00;81,35
2018-08-04 06:15;77,35
2018-08-04 06:30;76,4
2018-08-04 06:45;74,85
2018-08-04 07:00;72,75
2018-08-04 07:15;72,7
2018-08-04 07:30;69,95
2018-08-04 07:45;70,55
2018-08-04 08:00;72,4
2018-08-04 08:15;72
2018-08-04 08:30;77,5
2018-08-04 08:45;77,15
2018-08-04 09:00;79,2
2018-08-04 09:15;76
2018-08-04 09:30;77,95
2018-08-04 09:45;75,35
2018-08-04 10:00;77,95
2018-08-04 10:15;76,7
2018-08-04 10:30;77,5
2018-08-04 10:45;78,7
2018-08-04 11:00;75,85
2018-08-04 11:15;78,45
2018-08-04 11:30;76,6
2018-08-04 11:45;77,55
2018-08-04 12:00;79,1
2018-08-04 12:15;80,65
2018-08-04 12:30;83,4
2018-08-04 12:45;80,55
2018-08-04 13:00;80,35
2018-08-04 13:15;79,85
2018-08-04 13:30;77,6
2018-08-04 13:45;81,1
2018-08-04 14:00;79,1
2018-08-04 14:15;82
2018-08-04 14:30;82,75
2018-08-04 14:45;82,15
2018-08-04 15:00;83,25
2018-08-04 15:15;82,35
2018-08-04 15:30;82,75
2018-08-04 15:45;83,5
2018-08-04 16:00;81,45
2018-08-04 16:15;84,25
2018-08-04 16:30;83,1
2018-08-04 16:45;82,5
2018-08-04 17:00;81,65
2018-08-04 17:15;79,35
2018-08-04 17:30;80,55
2018-08-04 17:45;78,65
2018-08-04 18:00;79,35
2018-08-04 18:15;79,95
2018-08-04 18:30;79,85
2018-08-04 18:45;81,15
2018-08-04 19:00;83,3
2018-08-04 19:15;85,7
2018-08-04 19:30;86,1
2018-08-04 19:45;88,2
2018-08-04 20:00;87,05
2018-08-04 20:15;86,15
2018-08-04 20:30;89,2
2018-08-04 20:45;92,95
2018-08-04 21:00;91,25
2018-08-04 21:15;93,7
2018-08-04 21:30;89,2
2018-08-04 21:45;90,45
2018-08-04 22:00;83,75
2018-08-04 22:15;84,9
2018-08-04 22:30;82,65
2018-08-04 22:45;82,4
2018-08-04 23:00;87,15
2018-08-04 23:15;83,8
2018-08-04 23:30;84,9
2018-08-04 23:45;91,5
2018-08-05 00:00;79,05
2018-08-05 00:15;80,1
2018-08-05 00:30;79,9
2018-08-05 00:45;79,35
2018-08-05 01:00;79,2
2018-08-05 01:15;77,6
2018-08-05 01:30;79,5
2018-08-05 01:45;78,65
2018-08-05 02:00;78
2018-08-05 02:15;77,6
2018-08-05 02:30;77,15
2018-08-05 02:45;78,75
2018-08-05 03:00;77,55
2018-08-05 03:15;79,65
2018-08-05 03:30;77,65
2018-08-05 03:45;80,4
2018-08-05 04:00;79,95
2018-08-05 04:15;78
2018-08-05 04:30;79,6
2018-08-05 04:45;79,3
2018-08-05 05:00;80,65
2018-08-05 05:15;79,8
2018-08-05 05:30;80,45
2018-08-05 05:45;79,6
2018-08-05 06:00;79,35
2018-08-05 06:15;75,9
2018-08-05 06:30;73,8
2018-08-05 06:45;74,3
2018-08-05 07:00;71,35
2018-08-05 07:15;71,15
2018-08-05 07:30;70,4
2018-08-05 07:45;67,95
2018-08-05 08:00;71,2
2018-08-05 08:15;69,25
2018-08-05 08:30;72,5
2018-08-05 08:45;73,25
2018-08-05 09:00;77,35
2018-08-05 09:15;76,45
2018-08-05 09:30;77,4
2018-08-05 09:45;77,3
2018-08-05 10:00;77,65
2018-08-05 10:15;78,2
2018-08-05 10:30;75,6
2018-08-05 10:45;76,7
2018-08-05 11:00;73,65
2018-08-05 11:15;76,3
2018-08-05 11:30;76,4
2018-08-05 11:45;76,35
2018-08-05 12:00;76,5
2018-08-05 12:15;75,2
2018-08-05 12:30;77,9
2018-08-05 12:45;77,8
2018-08-05 13:00;76,45
2018-08-05 13:15;78,55
2018-08-05 13:30;77,2
2018-08-05 13:45;79
2018-08-05 14:00;77,35
2018-08-05 14:15;80,45
2018-08-05 14:30;80,95
2018-08-05 14:45;80,55
2018-08-05 15:00;82,8
2018-08-05 15:15;79,4
2018-08-05 15:30;81,3
2018-08-05 15:45;80,1
2018-08-05 16:00;78,4
2018-08-05 16:15;79,4
2018-08-05 16:30;78,1
2018-08-05 16:45;79,7
2018-08-05 17:00;79,3
2018-08-05 17:15;77,55
2018-08-05 17:30;78,65
2018-08-05 17:45;80,85
2018-08-05 18:00;79,75
2018-08-05 18:15;79,1
2018-08-05 18:30;78,45
2018-08-05 18:45;80,2
2018-08-05 19:00;77,9
2018-08-05 19:15;80,65
2018-08-05 19:30;80,55
2018-08-05 19:45;82
2018-08-05 20:00;83,85
2018-08-05 20:15;83,75
2018-08-05 20:30;87,25
2018-08-05 20:45;89,4
2018-08-05 21:00;90,7
2018-08-05 21:15;88,4
2018-08-05 21:30;88,55
2018-08-05 21:45;88,35
2018-08-05 22:00;89,05
2018-08-05 22:15;83,95
2018-08-05 22:30;84,2
2018-08-05 22:45;81,9
2018-08-05 23:00;88,2
2018-08-05 23:15;84,2
2018-08-05 23:30;85,5
2018-08-05 23:45;90,2

